• în România
  • Lista ţărilor
  • Pe 7 zile
  • Temperatura apei
  • Hartă satelitară
  • Meteo pe hartă
  • Widget-uri
  • user-avatar
    Intrare

    Meteo pe oră la Staraya Toropa

    Astăzi, 25 Iunie, Luni

    Timp Temperatura Precipitaţii Vânt Presiune Umiditate
    00:00 +8°C° 0 mm 2 m/s 742 mmHg 97%
    01:00 +8°C° 0 mm 2 m/s 742 mmHg 97%
    02:00 +8°C° 0 mm 2 m/s 743 mmHg 98%
    03:00 +8°C° 0 mm 2 m/s 743 mmHg 96%
    04:00 +9°C° 0 mm 2 m/s 743 mmHg 95%
    05:00 +9°C° 0 mm 2 m/s 744 mmHg 94%
    06:00 +12°C° 0 mm 2 m/s 744 mmHg 84%
    07:00 +13°C° 0 mm 3 m/s 744 mmHg 74%
    08:00 +16°C° 0 mm 3 m/s 744 mmHg 64%
    09:00 +18°C° 0 mm 3 m/s 744 mmHg 59%
    10:00 +19°C° 0 mm 3 m/s 744 mmHg 53%
    11:00 +20°C° 0 mm 4 m/s 744 mmHg 47%
    12:00 +21°C° 0,1 mm 4 m/s 745 mmHg 47%
    13:00 +21°C° 0,1 mm 4 m/s 745 mmHg 47%
    14:00 +21°C° 0,1 mm 4 m/s 745 mmHg 47%
    15:00 +21°C° 0,1 mm 4 m/s 745 mmHg 52%
    16:00 +20°C° 0,1 mm 3 m/s 745 mmHg 56%
    17:00 +20°C° 0,1 mm 3 m/s 745 mmHg 61%
    18:00 +18°C° 0,1 mm 3 m/s 746 mmHg 70%
    19:00 +17°C° 0,1 mm 2 m/s 746 mmHg 79%
    20:00 +15°C° 0,1 mm 1 m/s 746 mmHg 88%
    21:00 +14°C° 0 mm 1 m/s 747 mmHg 90%
    22:00 +13°C° 0 mm 1 m/s 747 mmHg 93%
    23:00 +12°C° 0 mm 1 m/s 747 mmHg 96%

    Mâine, 26 Iunie, Marţi

    Timp Temperatura Precipitaţii Vânt Presiune Umiditate
    00:00 +12°C° 0 mm 1 m/s 747 mmHg 96%
    01:00 +11°C° 0 mm 1 m/s 748 mmHg 96%
    02:00 +11°C° 0 mm 1 m/s 748 mmHg 97%
    03:00 +11°C° 0 mm 1 m/s 748 mmHg 96%
    04:00 +12°C° 0 mm 1 m/s 749 mmHg 95%
    05:00 +12°C° 0 mm 1 m/s 749 mmHg 94%
    06:00 +14°C° 0 mm 1 m/s 749 mmHg 85%
    07:00 +16°C° 0 mm 1 m/s 750 mmHg 76%
    08:00 +20°C° 0 mm 1 m/s 750 mmHg 67%
    09:00 +21°C° 0 mm 1 m/s 750 mmHg 59%
    10:00 +23°C° 0 mm 1 m/s 750 mmHg 52%
    11:00 +24°C° 0 mm 1 m/s 750 mmHg 44%
    12:00 +24°C° 0 mm 1 m/s 750 mmHg 44%
    13:00 +25°C° 0 mm 1 m/s 750 mmHg 44%
    14:00 +25°C° 0 mm 1 m/s 750 mmHg 44%
    15:00 +25°C° 0 mm 1 m/s 750 mmHg 46%
    16:00 +24°C° 0 mm 1 m/s 750 mmHg 48%
    17:00 +24°C° 0 mm 1 m/s 750 mmHg 50%
    18:00 +23°C° 0 mm 1 m/s 750 mmHg 58%
    19:00 +21°C° 0 mm 1 m/s 750 mmHg 66%
    20:00 +19°C° 0 mm 1 m/s 750 mmHg 74%
    21:00 +18°C° 0 mm 1 m/s 750 mmHg 78%
    22:00 +16°C° 0 mm 1 m/s 751 mmHg 81%
    23:00 +15°C° 0 mm 1 m/s 751 mmHg 85%

    Poimâine, 27 Iunie, Miercuri

    Timp Temperatura Precipitaţii Vânt Presiune Umiditate
    00:00 +15°C° 0 mm 1 m/s 751 mmHg 87%
    01:00 +14°C° 0 mm 1 m/s 751 mmHg 89%
    02:00 +14°C° 0 mm 1 m/s 751 mmHg 92%
    03:00 +14°C° 0 mm 1 m/s 751 mmHg 90%
    04:00 +15°C° 0 mm 1 m/s 752 mmHg 88%
    05:00 +15°C° 0 mm 1 m/s 752 mmHg 86%
    06:00 +18°C° 0 mm 1 m/s 752 mmHg 78%
    07:00 +20°C° 0 mm 2 m/s 752 mmHg 70%
    08:00 +23°C° 0 mm 2 m/s 752 mmHg 61%
    09:00 +24°C° 0 mm 2 m/s 752 mmHg 55%
    10:00 +25°C° 0 mm 2 m/s 752 mmHg 49%
    11:00 +27°C° 0 mm 2 m/s 752 mmHg 43%
    12:00 +27°C° 0 mm 2 m/s 752 mmHg 42%
    13:00 +27°C° 0 mm 2 m/s 752 mmHg 42%
    14:00 +28°C° 0 mm 3 m/s 752 mmHg 41%
    15:00 +27°C° 0 mm 3 m/s 751 mmHg 44%
    16:00 +27°C° 0 mm 2 m/s 751 mmHg 47%
    17:00 +27°C° 0 mm 2 m/s 751 mmHg 49%
    18:00 +25°C° 0 mm 2 m/s 751 mmHg 58%
    19:00 +23°C° 0 mm 2 m/s 751 mmHg 66%
    20:00 +20°C° 0 mm 2 m/s 751 mmHg 74%
    21:00 +19°C° 0 mm 2 m/s 752 mmHg 77%
    22:00 +18°C° 0 mm 2 m/s 752 mmHg 79%
    23:00 +17°C° 0 mm 2 m/s 752 mmHg 81%

    28 Iunie, Joi

    Timp Temperatura Precipitaţii Vânt Presiune Umiditate
    00:00 +16°C° 0 mm 2 m/s 752 mmHg 83%
    01:00 +16°C° 0 mm 2 m/s 752 mmHg 84%
    02:00 +15°C° 0 mm 2 m/s 752 mmHg 85%
    03:00 +16°C° 0 mm 2 m/s 752 mmHg 84%
    04:00 +16°C° 0 mm 2 m/s 752 mmHg 82%
    05:00 +16°C° 0 mm 2 m/s 752 mmHg 81%
    06:00 +18°C° 0 mm 2 m/s 752 mmHg 73%
    07:00 +21°C° 0 mm 2 m/s 752 mmHg 66%
    08:00 +24°C° 0 mm 3 m/s 752 mmHg 59%
    09:00 +25°C° 0 mm 3 m/s 752 mmHg 54%
    10:00 +26°C° 0 mm 3 m/s 752 mmHg 48%
    11:00 +28°C° 0 mm 4 m/s 751 mmHg 42%
    12:00 +28°C° 0 mm 3 m/s 751 mmHg 41%
    13:00 +29°C° 0 mm 3 m/s 751 mmHg 41%
    14:00 +29°C° 0 mm 3 m/s 750 mmHg 40%
    15:00 +29°C° 0 mm 3 m/s 750 mmHg 42%
    16:00 +28°C° 0 mm 3 m/s 750 mmHg 44%
    17:00 +28°C° 0 mm 3 m/s 750 mmHg 46%
    18:00 +26°C° 0 mm 2 m/s 749 mmHg 55%
    19:00 +24°C° 0 mm 2 m/s 749 mmHg 65%
    20:00 +21°C° 0 mm 2 m/s 749 mmHg 74%
    21:00 +20°C° 0 mm 2 m/s 749 mmHg 76%
    22:00 +19°C° 0 mm 2 m/s 749 mmHg 78%
    23:00 +18°C° 0 mm 2 m/s 749 mmHg 80%

    29 Iunie, Vineri

    Timp Temperatura Precipitaţii Vânt Presiune Umiditate
    00:00 +17°C° 0 mm 2 m/s 748 mmHg 81%
    01:00 +17°C° 0 mm 2 m/s 748 mmHg 81%
    02:00 +16°C° 0 mm 2 m/s 748 mmHg 82%
    03:00 +16°C° 0 mm 2 m/s 748 mmHg 82%
    04:00 +17°C° 0 mm 2 m/s 748 mmHg 82%
    05:00 +17°C° 0 mm 2 m/s 747 mmHg 82%
    06:00 +19°C° 0 mm 2 m/s 747 mmHg 74%
    07:00 +21°C° 0 mm 2 m/s 747 mmHg 66%
    08:00 +24°C° 0 mm 3 m/s 746 mmHg 59%
    09:00 +26°C° 0 mm 3 m/s 746 mmHg 53%
    10:00 +27°C° 0 mm 3 m/s 746 mmHg 47%
    11:00 +28°C° 0 mm 3 m/s 745 mmHg 41%
    12:00 +29°C° 0 mm 3 m/s 745 mmHg 40%
    13:00 +29°C° 0 mm 3 m/s 744 mmHg 39%
    14:00 +30°C° 0 mm 3 m/s 744 mmHg 39%
    15:00 +30°C° 0 mm 3 m/s 743 mmHg 42%
    16:00 +29°C° 0 mm 3 m/s 743 mmHg 46%
    17:00 +29°C° 0 mm 2 m/s 742 mmHg 49%
    18:00 +27°C° 0 mm 2 m/s 742 mmHg 58%
    19:00 +25°C° 0 mm 2 m/s 741 mmHg 67%
    20:00 +24°C° 0 mm 2 m/s 741 mmHg 76%
    21:00 +23°C° 0 mm 2 m/s 741 mmHg 79%
    22:00 +20°C° 0 mm 2 m/s 740 mmHg 82%
    23:00 +19°C° 0 mm 2 m/s 740 mmHg 84%

    30 Iunie, Sâmbătă

    Timp Temperatura Precipitaţii Vânt Presiune Umiditate
    00:00 +19°C° 0 mm 2 m/s 739 mmHg 86%
    01:00 +19°C° 0 mm 3 m/s 739 mmHg 88%
    02:00 +19°C° 0 mm 3 m/s 738 mmHg 91%
    03:00 +19°C° 0,1 mm 3 m/s 738 mmHg 92%
    04:00 +19°C° 0,1 mm 2 m/s 738 mmHg 93%
    05:00 +19°C° 0,1 mm 2 m/s 737 mmHg 94%
    06:00 +20°C° 0,1 mm 2 m/s 737 mmHg 88%
    07:00 +23°C° 0,1 mm 2 m/s 737 mmHg 82%
    08:00 +24°C° 0,1 mm 2 m/s 737 mmHg 75%
    09:00 +25°C° 1,5 mm 2 m/s 736 mmHg 78%
    10:00 +25°C° 1,5 mm 2 m/s 736 mmHg 81%
    11:00 +25°C° 1,5 mm 2 m/s 736 mmHg 84%
    12:00 +22°C° 1,6 mm 3 m/s 736 mmHg 87%
    13:00 +21°C° 1,6 mm 4 m/s 736 mmHg 90%
    14:00 +19°C° 1,6 mm 5 m/s 736 mmHg 92%
    15:00 +17°C° 0,7 mm 5 m/s 736 mmHg 93%
    16:00 +15°C° 0,7 mm 5 m/s 736 mmHg 94%
    17:00 +14°C° 0,7 mm 5 m/s 737 mmHg 95%
    18:00 +13°C° 0,1 mm 5 m/s 737 mmHg 94%
    19:00 +13°C° 0,1 mm 4 m/s 737 mmHg 94%
    20:00 +13°C° 0,1 mm 4 m/s 738 mmHg 93%
    21:00 +12°C° 0,2 mm 4 m/s 738 mmHg 93%
    22:00 +12°C° 0,2 mm 4 m/s 739 mmHg 93%
    23:00 +12°C° 0,2 mm 5 m/s 739 mmHg 93%
    Arată mai mult